Terminal Aerodrome Forecast
Issued by NWS Blacksburg, VA

Current Version | Previous Version | Text Only | Print | Product List | Glossary Off
Versions: 1 2 3 4 5 6 7 8 9 10 11 12 13 14 15 16 17 18 19 20 21 22 23 24 25 26 27 28 29 30 31 32 33 34 35 36 37 38 39 40 41 42 43 44 45 46 47 48 49

000
FTUS41 KRNK 210442 AAB
TAFBLF
TAF AMD
KBLF 210442Z 2105/2124 25008KT P6SM -RA OVC060
     FM210600 27005KT P6SM VCSH SCT012 BKN018
      TEMPO 2109/2112 3SM BR BKN012
     FM211500 30010G18KT P6SM -SHRA OVC015=

USA.gov is the U.S. government's official web portal to all federal, state and local government web resources and services.